Regional Weather Roundup
Issued by NWS Newport/Morehead, NC

Home | Current Version | Previous Version | Text Only | Print | Product List | Glossary On
Versions: 1 2 3 4 5 6 7 8 9 10 11 12 13 14 15 16 17 18 19 20 21 22 23 24 25 26 27 28 29 30 31 32 33 34 35 36 37 38 39 40 41 42 43 44 45 46 47 48 49 50
000
ASUS42 KMHX 032325
RWRMHX
WEATHER ROUNDUP FOR EASTERN NORTH CAROLINA
NATIONAL WEATHER SERVICE NEWPORT/MOREHEAD CITY NC
700 PM EDT WED JUN 03 2015

NOTE: "FAIR" INDICATES FEW OR NO CLOUDS BELOW 12,000 FEET
WITH NO SIGNIFICANT WEATHER AND/OR OBSTRUCTIONS TO VISIBILITY

NCZ015>017-031-032-045>047-102-103-040000-
NORTH COAST

CITY           SKY/WX    TMP DP  RH WIND       PRES   REMARKS
EDENTON        CLOUDY    68  66  92 N7        30.04R
ELIZABETH CITY CLOUDY    70  67  90 N8        30.03S
KITTY HAWK       N/A     71  69  93 CALM      30.01S
MANTEO         PTSUNNY   73  68  87 NE5       30.03R

$$

NCZ045>047-081-094-103-104-040000-
CENTRAL COAST

CITY           SKY/WX    TMP DP  RH WIND       PRES   REMARKS
FRISCO         CLOUDY    76  70  82 E6        30.01R
SWANQUARTER      N/A     75 N/A N/A N7        29.97S

$$

NCZ095-097-098-100-101-040000-
SOUTHERN COAST

CITY           SKY/WX    TMP DP  RH WIND       PRES   REMARKS
BEAUFORT       CLOUDY    76  70  82 E8        29.99S
CEDAR ISLAND     N/A     77 N/A N/A E7G15     30.03S
JACKSONVILLE   CLOUDY    76  66  71 SE6       29.98S
PINEY ISLAND   CLOUDY   N/A N/A N/A E10       29.99S
WILMINGTON     CLOUDY    75  67  76 SE6       29.99R


$$

NCZ011>013-027>030-043-044-078>080-089-090>093-098-040000-
COASTAL PLAIN

CITY           SKY/WX    TMP DP  RH WIND       PRES   REMARKS
AHOSKIE        CLOUDY    66  64  93 N8        30.06S
CLINTON        CLOUDY    71  70  96 N3        30.01R
ELIZABETHTOWN  PTSUNNY   73  67  79 CALM      30.01R
GOLDSBORO      PTSUNNY   71  69  93 N8        30.00R
GREENVILLE     CLOUDY    70  70 100 NE9       30.04R
HAVELOCK       CLOUDY    77  69  76 E7        30.00S
KENANSVILLE    CLOUDY    71  67  87 CALM      30.02R FOG
KINSTON        RAIN      68  68 100 N7        30.02R
NEW BERN       CLOUDY    75  67  76 NE6       30.01R
RICHLANDS      CLOUDY    72  66  83 W6        30.01R
ROCKY MOUNT    CLOUDY    68  67  96 N13       30.04R
WASHINGTON     HVY RAIN  69  68  96 N9        30.02R
WHITEVILLE     DRIZZLE   73  67  81 CALM      29.99R

$$

AMZ130-135-150-152-154-156-158-170-250-252-270-ANZ085-086-088-633-658-670-040000-
MARINE OBSERVATIONS

STATION/POSITION TIME  TEMP    WIND        PRES    WAVE   SWELL
                       AIR SEA DIR/SP/G            HT/PER HT/PER
                 (UTC) (F)     (DEG/KT/KT) (MB)    (FT/S) (FT/S)
CHESAPEAKE LIGHT 2300   68      50/ 18/ 19 1017.7
64 E VA BEACH    2250   72 74   60/ 14/ 17 1016.3    5/ 8   5/ 8
DUCK             2300   70 63  360/  4/  6 1015.7
2 E DUCK         2211      69                N/A     4/ 7
OREGON INLET     2300   74 70   10/  5/  8 1016.3
13E OREGON INLT  2300      77                N/A     4/ 7
HATTERAS CG      2300   77 78   60/  6/  7 1015.6
DIAMOND BUOY     2250   78 81  130/  8/ 10 1015.7    3/ 8   2/ 8
CAPE LOOKOUT     2300   76      60/ 11/ 12 1015.2
BEAUFORT LAB     2300   76 78   70/  7/  9 1014.6
30 SE NEW RVR IN NOT AVBL
27 SE WRIGHTSVLE 2300      77  100/  8/ 10   N/A
5 SE WRIGHTSVLE  2208   76 78  120/ 10/ 14 1014.9
225 S CAPE HAT   2250   76 76  170/ 10/ 12 1015.8    3/ 8   3/ 8
41 SE CHARLESTON 2250   77 80  120/ 10/ 14 1014.3    2/ 8   2/ 8

$$


USA.gov is the U.S. government's official web portal to all federal, state and local government web resources and services.